WEST ERIE NM NW of Lorain, OH (45005)

Conditions for Tuesday

Daily
Weekly
Monthly
Marine Data Graph

Current Weather/Wave Observations

Air Temperature: 79° F
Humidity: 76
Wind direction (W Dir): East (75 - 84 Degrees)
Wind Speed (W Spd): 3.9 kts (4.5 mph)
Wind Gust (W Spd): 3.9 kts (4.5 mph)
Dominant Wave Height (DWH): 0.00 ft
Dominant Wave Range (DWR): exactly 0.0 ft
Atmospheric Pressure (AP): 29.94 in

Updated: 5:50 PM EDT on September 26, 2017

Marine & Boating Location Search

Enter a coastal zip code for marine weather.

Current Wave Detail Observations

Water Depth: 33 ft
Wave Height: 0.16 ft
Spectral Peak Period:
Average Wave Period: 2.6 sec
Sampling Interval: 0.6 sec
Wave Record: 2400 sec

Updated: 5:00 PM EDT on September 26, 2017

General Information

Location: 41.677 North -82.398 West
Buoy Type: 2.4-meter discus buoy
Buoy Hull: 2.4D06
Payload: SCOOP payload
Owned by: NDBC
Windspeed: Measured by obtained from anemometer
Sea Surface: Measured by Intake

Weather and Wave Data

Time Temp Humidity Wind Pressure
  Air
(°F)
Water
(°F)
  Dir Speed
(kts)
Speed
(mph)
Atmo.
(in)
Tend.
(in)
20:10 76 75 86 East 5.8 6.7 29.98 -
20:20 76 75 84 ESE 5.8 6.7 29.99 -
20:30 76 75 84 ESE 5.8 6.7 29.99 -
20:40 76 75 82 ESE 7.8 8.9 29.99 -
20:50 76 75 83 ESE 5.8 6.7 29.99 -
21:20 76 75 83 ESE 5.8 6.7 29.99 -
21:30 76 75 82 East 5.8 6.7 29.99 -
21:40 76 75 82 East 5.8 6.7 29.99 -
21:50 76 75 82 East 5.8 6.7 29.99 -
22:00 76 75 82 ESE 5.8 6.7 29.99 -
22:10 76 75 81 ESE 3.9 4.5 29.99 -
22:20 76 75 82 ESE 3.9 4.5 29.98 -
22:30 76 75 81 ESE 3.9 4.5 29.98 -
22:40 76 75 82 ESE 3.9 4.5 29.99 -
22:50 76 75 82 SE 3.9 4.5 29.99 -
23:00 76 75 83 SE 3.9 4.5 29.99 +0.01
23:10 75
-
86 SE 3.9 4.5 29.99 -
23:20 75 75 87 SE 5.8 6.7 29.99 -
23:30 75 75 88 SE 5.8 6.7 29.99 -
23:40 75 75 88 SE 5.8 6.7 29.99 -
23:50 75 75 88 SE 5.8 6.7 29.99 -
00:20 75 75 85 SSE 3.9 4.5 29.99 -
00:30 75 75 84 South 3.9 4.5 29.99 -
00:50 75 75 81 South 3.9 4.5 29.99 -
01:10 76 75 76 South 3.9 4.5 29.99 -
01:20 75 75 81 South 3.9 4.5 29.98 -
01:30 75 75 83 SSE 3.9 4.5 29.98 -
01:40 75 75 83 South 5.8 6.7 29.99 -
01:50 75 75 81 South 5.8 6.7 29.99 -
02:10 75 75 83 SSE 5.8 6.7 29.99 -
02:20 75 75 81 SSE 5.8 6.7 29.99 -
02:30 75 75 77 SSE 5.8 6.7 29.99 -
02:40 75 75 77 South 5.8 6.7 29.99 -
02:50 75 75 77 South 5.8 6.7 29.99 -
03:00 75 75 76 South 5.8 6.7 29.99 -
03:10 75 75 77 South 5.8 6.7 29.98 -
03:20 75 75 79 South 5.8 6.7 29.98 -
03:30 75 75 80 South 5.8 6.7 29.99 -
03:40 75 75 81 South 5.8 6.7 29.99 -
03:50 75 75 80 South 5.8 6.7 29.99 -
04:00 75 75 79 SSW 5.8 6.7 29.99 -
04:10 75 75 76 SSW 7.8 8.9 29.98 -
04:30 75 75 77 SSW 7.8 8.9 29.99 -
04:40 75 75 77 SSW 7.8 8.9 29.98 -
04:50 75 75 75 South 7.8 8.9 29.98 -
05:00 75 75 76 South 7.8 8.9 29.99 -
05:10 75 74 75 South 7.8 8.9 29.98 -
05:20 75 74 74 South 9.7 11.2 29.98 -
05:30 75 74 75 South 9.7 11.2 29.98 -
05:40 75 74 74 South 9.7 11.2 29.99 -
05:50 75 74 77 South 7.8 8.9 29.99 -
06:10 75 74 75 SSW 7.8 8.9 29.99 -
06:20 74 74 77 SSW 9.7 11.2 29.99 -
06:30 74 74 77 SSW 9.7 11.2 29.99 -
06:40 74 74 78 SSW 7.8 8.9 29.99 -
06:50 74 74 77 SW 9.7 11.2 29.99 -
07:10 74 74 78 SSW 7.8 8.9 29.99 -
07:20 74 74 77 SSW 7.8 8.9 30.00 -
07:30 74 74 78 SSW 7.8 8.9 30.00 -
07:40 74 74 78 SSW 7.8 8.9 30.00 -
07:50 74 74 78 SSW 7.8 8.9 30.00 -
08:00 73 74 80 SSW 7.8 8.9 30.01 +0.03
08:20 73 74 79 SSW 7.8 8.9 30.01 -
08:40 73 74 80 South 7.8 8.9 30.01 -
08:50 73 74 78 SSW 7.8 8.9 30.01 -
09:10 73
-
77 SSW 7.8 8.9 30.01 -
09:20 73 74 76 SSW 7.8 8.9 30.01 -
09:30 73 74 77 SSW 7.8 8.9 30.01 -
09:40 73 74 77 SSW 7.8 8.9 30.01 -
09:50 73 74 78 SSW 7.8 8.9 30.01 -
10:20 74 74 75 SW 5.8 6.7 30.02 -
10:30 74 74 74 SW 5.8 6.7 30.02 -
10:40 74 74 73 SW 7.8 8.9 30.02 -
10:50 74 74 73 SW 5.8 6.7 30.02 -
11:10 74 75 73 SSW 5.8 6.7 30.01 -
11:20 75 75 71 SSW 5.8 6.7 30.01 -
11:30 75 75 70 SSW 5.8 6.7 30.01 -
11:40 75 75 72 SSW 5.8 6.7 30.01 -
11:50 75 75 70 SSW 5.8 6.7 30.01 -
12:00 75 75 71 SSW 5.8 6.7 30.01 -
12:10 75 75 71 SSW 5.8 6.7 30.01 -
12:20 75 75 70 SSW 3.9 4.5 30.01 -
12:30 76 75 69 SSW 3.9 4.5 30.01 -
12:40 76 75 69 SSW 3.9 4.5 30.01 -
12:50 76 75 70 South 3.9 4.5 30.01 -
13:00 76 75 69 South 1.9 2.2 30.01 -0.01
13:10 76 75 68 South 1.9 2.2 30.01 -
13:20 76 75 68 South 1.9 2.2 30.00 -
13:30 76
-
68 South 1.9 2.2 30.00 -
13:40 76 75 66 South 1.9 2.2 30.00 -
13:50 77 75 65 SSW 1.9 2.2 29.99 -
14:00 78 75 62 - 0.0 0.0 29.99 -0.03
14:10 78 75 63 - 0.0 0.0 29.99 -
14:20 77 75 65 - 0.0 0.0 29.98 -
14:30 78 75 62 East 1.9 2.2 29.98 -
14:40 77 75 64 East 1.9 2.2 29.97 -
14:50 77 75 63 East 1.9 2.2 29.97 -
15:10 78 75 62 ENE 1.9 2.2 29.97 -
15:20 78 75 63 ENE 1.9 2.2 29.96 -
15:30 78 75 64 ENE 1.9 2.2 29.96 -
15:50 79 75 63 NE 3.9 4.5 29.95 -
16:00 79 75 64 NE 3.9 4.5 29.95 -0.06
16:10 79 75 67 NE 3.9 4.5 29.95 -
16:20 79 75 68 NE 3.9 4.5 29.95 -
16:30 79 75 69 NE 3.9 4.5 29.95 -
16:40 79 75 71 NE 3.9 4.5 29.94 -
16:50 79 75 72 ENE 3.9 4.5 29.94 -
17:10 79 75 76 East 3.9 4.5 29.94 -
17:30 79 75 76 East 3.9 4.5 29.94 -
17:40 79 75 76 East 3.9 4.5 29.94 -
17:50 79 75 76 East 3.9 4.5 29.94 -

Detailed Wave Spectra

Time Water Depth Wave Height Spectral Peak Period Average Wave Period Sampling Interval Wave Record
20:00 33 ft 0.39 ft 2.3 sec 0.6 sec 2400 sec
21:00 33 ft 0.43 ft 2.4 sec 0.6 sec 2400 sec
00:00 33 ft 0.66 ft 2.8 sec 0.6 sec 2400 sec
01:00 33 ft 0.72 ft 2.9 sec 0.6 sec 2400 sec
02:00 33 ft 0.59 ft 2.9 sec 0.6 sec 2400 sec
06:00 33 ft 0.52 ft 2.5 sec 0.6 sec 2400 sec
07:00 33 ft 0.69 ft 2.4 sec 0.6 sec 2400 sec
09:00 33 ft 0.62 ft 2.5 sec 0.6 sec 2400 sec
10:00 33 ft 0.62 ft 2.5 sec 0.6 sec 2400 sec
11:00 33 ft 0.62 ft 2.5 sec 0.6 sec 2400 sec
15:00 33 ft 0.23 ft 2.6 sec 0.6 sec 2400 sec
17:00 33 ft 0.16 ft 2.6 sec 0.6 sec 2400 sec